Tracking 19795 objects as of 17-Jul-2019
HD Live streaming from Space Station
objects crossing your sky now

FENGYUN 1C DEB

Track FENGYUN 1C DEB now!
10-day predictions


NORAD ID: 30648
Int'l Code: 1999-025APF
Perigee: 780.2 km
Apogee: 852.5 km
Inclination: 98.8 °
Period: 101.1 minutes
Semi major axis: 7187 km
RCS: 0.034 m2 (small)
Launch date: May 10, 1999
Source: People's Republic of China (PRC)
Launch site: Taiyaun Space Center, China (TSC)

Note: This is SATELLITE DEBRIS
aabbcc
Your satellite tracking list
Your tracking list is empty




NASA's NSSDC Master Catalog

Two Line Element Set (TLE):
1 30648U 99025APF 19198.14120536  .00000488  00000-0  22553-3 0  9996
2 30648  98.7683 259.9483 0050304 149.8391 264.0610 14.24780486644367
Source of the keplerian elements: AFSPC